GW6933 Weather Reports


time (UTC)temp
C
wind
direction
speed
KPH
gust
KPH
rain 1hr
cm
rain 24hr
cm
rain mn
cm
humidity
%
barometer
mb
20260906113403 21 113 1.6 3.2 0.00 0.00 0.00 96 1049.5
20260906112859 21 57 3.2 3.2 0.00 0.00 0.00 96 1049.4
20260906112355 21 339 4.8 11.3 0.00 0.00 0.00 97 1049.2
20260906111855 21 334 6.4 9.7 0.00 0.00 0.00 97 1049.3
20260906111355 21 57 1.6 6.4 0.00 0.00 0.00 97 1049.0
20260906110850 21 107 0.0 3.2 0.00 0.00 0.00 97 1049.0
20260906110346 21 103 0.0 4.8 0.00 0.00 0.00 97 1049.0
20260906105844 21 5 4.8 4.8 0.00 0.00 0.00 97 1049.0
20260906105340 21 65 1.6 3.2 0.00 0.00 0.00 97 1049.1
20260906104836 21 109 0.0 0.0 0.00 0.00 0.00 97 1048.9
20260906104334 21 108 0.0 0.0 0.00 0.00 0.00 97 1048.9
20260906103833 21 109 0.0 0.0 0.00 0.00 0.00 97 1049.0
20260906103331 20 30 3.2 3.2 0.00 0.00 0.00 97 1048.9
20260906102828 21 107 0.0 1.6 0.00 0.00 0.00 97 1049.1
20260906102326 20 114 0.0 0.0 0.00 0.00 0.00 97 1048.8
20260906101822 20 112 0.0 1.6 0.00 0.00 0.00 97 1048.7
20260906101317 20 82 1.6 3.2 0.00 0.00 0.00 97 1048.7
20260906100813 20 113 0.0 0.0 0.00 0.00 0.00 97 1048.7
20260906100311 20 113 0.0 0.0 0.00 0.00 0.00 97 1048.7
20260906095807 20 111 0.0 0.0 0.00 0.00 0.00 97 1048.6
20260906095305 21 108 0.0 1.6 0.00 0.00 0.00 97 1048.6
20260906094801 21 101 0.0 1.6 0.00 0.00 0.00 97 1048.3
20260906094256 20 102 0.0 0.0 0.00 0.00 0.00 96 1048.4
20260906093753 20 115 0.0 0.0 0.00 0.00 0.00 96 1048.7
20260906093248 21 118 0.0 0.0 0.00 0.00 0.00 96 1048.2
20260906092743 21 116 0.0 1.6 0.00 0.00 0.00 96 1048.5
20260906092238 21 116 0.0 0.0 0.00 0.00 0.00 96 1048.5
20260906091734 21 110 0.0 0.0 0.00 0.00 0.00 96 1048.4
20260906091230 21 111 0.0 1.6 0.00 0.00 0.00 96 1048.5
20260906090726 21 110 0.0 1.6 0.00 0.00 0.00 96 1048.4
20260906090225 21 111 0.0 1.6 0.00 0.00 0.00 96 1048.3
20260906085724 21 112 0.0 1.6 0.00 0.00 0.00 96 1048.4
20260906085223 21 112 1.6 1.6 0.00 0.00 0.00 96 1048.2
20260906084719 21 94 0.0 0.0 0.00 0.00 0.00 96 1048.3
20260906084218 21 103 0.0 0.0 0.00 0.00 0.00 96 1048.3
20260906083714 21 111 0.0 0.0 0.00 0.00 0.00 96 1048.3
20260906083209 20 82 1.6 1.6 0.00 0.00 0.00 96 1048.4
20260906082704 20 113 0.0 0.0 0.00 0.00 0.00 96 1048.3
20260906082159 20 118 0.0 0.0 0.00 0.00 0.00 96 1048.3
20260906081655 20 118 0.0 0.0 0.00 0.00 0.00 96 1048.3
20260906081150 20 108 0.0 1.6 0.00 0.00 0.00 96 1048.3
20260906080646 20 108 0.0 0.0 0.00 0.00 0.00 96 1048.5
20260906080142 20 106 0.0 0.0 0.00 0.00 0.00 96 1048.3
20260906075642 20 114 0.0 0.0 0.00 0.00 0.00 96 1048.2
20260906075136 20 110 0.0 0.0 0.00 0.00 0.00 95 1048.2
20260906074632 20 118 0.0 0.0 0.00 0.00 0.00 95 1048.4
20260906074130 20 111 0.0 0.0 0.00 0.00 0.00 95 1048.3
20260906073626 21 117 0.0 0.0 0.00 0.00 0.00 95 1048.2
20260906073121 21 96 1.6 1.6 0.00 0.00 0.00 95 1048.1
20260906072616 21 111 0.0 0.0 0.00 0.00 0.00 95 1048.2
20260906072113 21 107 0.0 0.0 0.00 0.00 0.00 95 1048.4
20260906071609 21 97 1.6 1.6 0.00 0.00 0.00 94 1048.2
20260906071109 21 96 1.6 1.6 0.00 0.00 0.00 94 1048.4
20260906070606 21 99 1.6 1.6 0.00 0.00 0.00 94 1048.4
20260906070101 21 108 0.0 0.0 0.00 0.00 0.00 93 1048.6
20260906065600 21 110 0.0 0.0 0.00 0.00 0.00 94 1048.8
20260906065056 21 85 1.6 1.6 0.00 0.00 0.00 94 1048.8
20260906064551 21 51 4.8 4.8 0.00 0.00 0.00 94 1048.7
20260906064046 21 63 1.6 1.6 0.00 0.00 0.00 94 1048.5
20260906063541 21 51 3.2 3.2 0.00 0.00 0.00 94 1048.5
20260906063038 21 109 0.0 0.0 0.00 0.00 0.00 94 1048.6
20260906062532 21 136 0.0 1.6 0.00 0.00 0.00 93 1048.5
20260906062026 21 111 0.0 0.0 0.00 0.00 0.00 92 1048.5
20260906061523 22 111 1.6 1.6 0.00 0.00 0.00 92 1048.9
20260906061022 22 107 0.0 0.0 0.00 0.00 0.00 92 1048.6
20260906060519 22 91 1.6 1.6 0.00 0.00 0.00 93 1048.8
20260906060015 22 110 0.0 0.0 0.00 0.00 0.00 92 1048.8
20260906055511 22 137 0.0 1.6 0.00 0.00 0.00 91 1049.1
20260906055007 22 143 1.6 1.6 0.00 0.00 0.00 90 1048.9
20260906054507 22 107 0.0 1.6 0.00 0.00 0.00 90 1049.2
20260906054002 22 104 0.0 1.6 0.00 0.00 0.00 90 1048.9
20260906053458 22 104 0.0 1.6 0.00 0.00 0.00 91 1048.9
20260906052954 22 108 0.0 1.6 0.00 0.00 0.00 91 1049.0
20260906052450 22 117 0.0 0.0 0.00 0.00 0.00 91 1049.1
20260906051946 22 113 0.0 0.0 0.00 0.00 0.00 92 1048.9
20260906051442 22 113 0.0 0.0 0.00 0.00 0.00 93 1048.8
20260906050937 22 112 0.0 1.6 0.00 0.00 0.00 93 1048.8
20260906050437 22 124 0.0 1.6 0.00 0.00 0.00 93 1048.9
20260906045936 22 121 0.0 1.6 0.00 0.00 0.00 93 1048.9
20260906045435 21 144 0.0 1.6 0.00 0.00 0.00 93 1049.0
20260906044932 22 117 0.0 0.0 0.00 0.00 0.00 93 1048.7
20260906044432 22 117 0.0 0.0 0.00 0.00 0.00 92 1048.9
20260906043927 22 112 0.0 0.0 0.00 0.00 0.00 92 1048.8
20260906043423 22 112 0.0 0.0 0.00 0.00 0.00 91 1049.0
20260906042918 22 112 0.0 0.0 0.00 0.00 0.00 91 1048.9
20260906042417 22 109 0.0 0.0 0.00 0.00 0.00 90 1048.8
20260906041913 22 111 0.0 0.0 0.00 0.00 0.00 90 1048.8
20260906041409 22 103 1.6 1.6 0.00 0.00 0.00 91 1048.6
20260906040908 22 109 0.0 1.6 0.00 0.00 0.00 89 1048.8
20260906040403 22 95 1.6 1.6 0.00 0.00 0.00 91 1048.7
20260906035859 22 114 0.0 0.0 0.00 0.69 0.69 91 1049.0
20260906035355 22 120 0.0 0.0 0.00 0.69 0.69 90 1048.5
20260906034850 22 111 0.0 0.0 0.00 0.69 0.69 90 1048.4
20260906034350 22 117 0.0 0.0 0.00 0.69 0.69 89 1048.4
20260906033846 22 112 0.0 0.0 0.00 0.69 0.69 88 1048.3
20260906033345 23 117 0.0 0.0 0.00 0.69 0.69 87 1048.2
20260906032841 23 106 0.0 0.0 0.00 0.69 0.69 86 1048.5
20260906032337 23 112 0.0 0.0 0.00 0.69 0.69 86 1048.5
20260906031832 23 118 0.0 0.0 0.00 0.69 0.69 85 1048.5
20260906031327 23 107 0.0 0.0 0.00 0.69 0.69 85 1048.2
20260906030827 23 31 1.6 1.6 0.00 0.69 0.69 85 1048.3
20260906030323 23 109 0.0 1.6 0.00 0.69 0.69 85 1048.5
20260906025823 23 90 1.6 1.6 0.00 0.69 0.69 85 1048.5
20260906025317 23 72 3.2 6.4 0.00 0.69 0.69 85 1048.7
20260906024816 23 96 3.2 4.8 0.00 0.69 0.69 85 1048.4
20260906024315 23 329 8.0 16.1 0.00 0.69 0.69 88 1048.6
20260906023811 23 110 0.0 0.0 0.00 0.69 0.69 89 1048.4
20260906023306 23 96 0.0 0.0 0.00 0.69 0.69 88 1048.1
20260906022801 23 112 0.0 0.0 0.00 0.69 0.69 89 1048.1
20260906022257 23 112 0.0 0.0 0.00 0.69 0.69 89 1048.0
20260906021753 23 109 0.0 0.0 0.00 0.69 0.69 88 1048.2
20260906021251 23 107 0.0 0.0 0.00 0.69 0.69 88 1048.0
20260906020746 23 114 0.0 0.0 0.00 0.69 0.69 87 1048.0
20260906020246 23 107 0.0 0.0 0.00 0.69 0.69 88 1047.9
20260906015741 24 77 0.0 0.0 0.00 0.69 0.69 88 1048.1
20260906015240 24 64 0.0 0.0 0.00 0.69 0.69 85 1047.9
20260906014740 24 106 0.0 0.0 0.00 0.69 0.69 84 1047.8
20260906014235 24 107 0.0 0.0 0.00 0.69 0.69 86 1047.9
20260906013731 24 103 0.0 0.0 0.00 0.69 0.69 87 1047.9
20260906013231 24 115 0.0 0.0 0.00 0.69 0.69 90 1047.9
20260906012726 24 115 0.0 0.0 0.00 0.69 0.69 91 1047.7
20260906012221 24 119 0.0 0.0 0.00 0.69 0.69 90 1047.8
20260906011717 24 113 0.0 0.0 0.00 0.69 0.69 90 1047.5
20260906011211 25 112 0.0 0.0 0.00 0.69 0.69 89 1047.4
20260906010707 25 115 0.0 0.0 0.00 0.69 0.69 88 1047.5
20260906010203 25 127 0.0 0.0 0.00 0.69 0.69 88 1047.5
20260906005702 25 112 0.0 0.0 0.00 0.69 0.69 87 1047.3
20260906005202 25 97 0.0 0.0 0.00 0.69 0.69 86 1047.1
20260906004701 26 115 0.0 0.0 0.00 0.69 0.69 86 1047.4
20260906004156 26 110 0.0 0.0 0.00 0.69 0.69 86 1047.1
20260906003652 26 105 0.0 0.0 0.00 0.69 0.69 85 1047.1
20260906003148 26 112 0.0 0.0 0.00 0.69 0.69 85 1047.4
20260906002647 26 108 0.0 0.0 0.00 0.69 0.69 84 1046.9
20260906002142 26 96 0.0 0.0 0.00 0.69 0.69 84 1046.8
20260906001637 27 113 0.0 0.0 0.00 0.69 0.69 83 1047.3
20260906001137 27 111 0.0 0.0 0.00 0.69 0.69 82 1047.7
20260906000633 27 111 0.0 0.0 0.00 0.69 0.69 80 1047.4
20260906000128 27 109 0.0 0.0 0.00 0.69 0.69 79 1047.6
20260905235627 28 115 0.0 0.0 0.00 0.69 0.69 78 1047.7
20260905235123 28 112 0.0 0.0 0.00 0.69 0.69 78 1047.8
20260905234618 28 113 0.0 0.0 0.00 0.69 0.69 77 1047.8
20260905234114 29 109 0.0 0.0 0.00 0.69 0.69 74 1047.7
20260905233613 30 116 0.0 0.0 0.00 0.69 0.69 73 1047.7
20260905233108 30 135 0.0 0.0 0.00 0.69 0.69 72 1047.7
20260905232603 30 111 0.0 0.0 0.00 0.69 0.69 65 1047.7
20260905232059 31 114 0.0 0.0 0.00 0.69 0.69 67 1048.0
20260905231554 31 115 0.0 0.0 0.00 0.69 0.69 68 1048.0
20260905231050 31 115 0.0 0.0 0.00 0.69 0.69 67 1047.9
20260905230550 31 107 0.0 0.0 0.00 0.69 0.69 64 1047.6
20260905230048 32 109 0.0 0.0 0.00 0.69 0.69 58 1047.8
20260905225543 32 110 0.0 0.0 0.00 0.69 0.69 59 1047.9
20260905225038 33 114 0.0 0.0 0.00 0.69 0.69 59 1047.8
20260905224538 33 115 0.0 0.0 0.00 0.69 0.69 60 1047.7
20260905224037 33 115 0.0 0.0 0.00 0.69 0.69 60 1047.7
20260905223535 32 116 0.0 0.0 0.00 0.69 0.69 56 1047.8
20260905223031 32 112 0.0 1.6 0.00 0.69 0.69 59 1047.8
20260905222530 32 87 1.6 4.8 0.00 0.69 0.69 57 1047.7
20260905222026 33 206 3.2 6.4 0.00 0.69 0.69 53 1047.8
20260905221522 33 349 6.4 6.4 0.00 0.69 0.69 52 1047.8
20260905221018 34 163 1.6 4.8 0.00 0.69 0.69 51 1047.6
20260905220514 34 174 1.6 1.6 0.00 0.69 0.69 50 1047.9
20260905220009 33 357 3.2 3.2 0.00 0.69 0.69 53 1047.8
20260905215504 33 164 3.2 4.8 0.00 0.69 0.69 51 1047.7
20260905215000 34 186 3.2 4.8 0.00 0.69 0.69 50 1047.6
20260905214455 34 221 3.2 4.8 0.00 0.69 0.69 54 1047.8
20260905213955 34 176 4.8 6.4 0.00 0.69 0.69 50 1047.4
20260905213452 33 238 6.4 6.4 0.00 0.69 0.69 50 1047.6
20260905212946 34 243 8.0 11.3 0.00 0.69 0.69 50 1047.5
20260905212441 34 241 8.0 9.7 0.00 0.69 0.69 47 1047.4
20260905211940 34 159 3.2 4.8 0.00 0.69 0.69 48 1047.5
20260905211436 34 185 3.2 4.8 0.00 0.69 0.69 50 1047.6
20260905210932 34 250 6.4 6.4 0.00 0.69 0.69 46 1047.8
20260905210432 34 155 3.2 4.8 0.00 0.69 0.69 47 1047.5
20260905205932 34 159 3.2 4.8 0.00 0.69 0.69 50 1047.5
20260905205427 34 179 3.2 6.4 0.00 0.69 0.69 48 1047.7
20260905204926 34 200 3.2 9.7 0.00 0.69 0.69 48 1047.5
20260905204422 33 215 4.8 9.7 0.00 0.69 0.69 48 1047.5
20260905203921 34 166 4.8 9.7 0.00 0.69 0.69 50 1047.6
20260905203416 34 223 4.8 9.7 0.00 0.69 0.69 49 1047.7
20260905202912 34 172 3.2 4.8 0.00 0.69 0.69 45 1047.8
20260905202407 34 139 3.2 6.4 0.00 0.69 0.69 50 1047.9
20260905201903 34 133 4.8 6.4 0.00 0.69 0.69 46 1048.1
20260905201358 34 138 1.6 3.2 0.00 0.69 0.69 45 1048.2
20260905200857 34 183 6.4 6.4 0.00 0.69 0.69 45 1048.1
20260905200353 34 137 3.2 6.4 0.00 0.69 0.69 46 1048.2
20260905195851 34 126 1.6 3.2 0.00 0.69 0.69 44 1048.1
20260905195347 34 179 3.2 6.4 0.00 0.69 0.69 44 1048.3
20260905194842 34 86 4.8 4.8 0.00 0.69 0.69 44 1048.3
20260905194342 34 146 1.6 3.2 0.00 0.69 0.69 47 1048.6
20260905193841 34 109 0.0 3.2 0.00 0.69 0.69 47 1048.6
20260905193336 33 197 4.8 9.7 0.00 0.69 0.69 44 1048.6
20260905192832 33 199 4.8 6.4 0.00 0.69 0.69 47 1048.9
20260905192328 33 153 3.2 4.8 0.00 0.69 0.69 45 1048.6
20260905191827 34 80 6.4 11.3 0.00 0.69 0.69 46 1048.8
20260905191326 33 127 1.6 1.6 0.00 0.69 0.69 47 1048.7
20260905190825 33 93 6.4 9.7 0.00 0.69 0.69 46 1048.7
20260905190324 33 105 1.6 6.4 0.00 0.69 0.69 44 1048.8
20260905185823 34 200 4.8 4.8 0.00 0.69 0.69 45 1049.1
20260905185319 34 153 4.8 6.4 0.00 0.69 0.69 47 1049.0
20260905184818 34 116 1.6 3.2 0.00 0.69 0.69 52 1049.2
20260905184317 33 115 0.0 3.2 0.00 0.69 0.69 46 1049.0
20260905183815 33 111 1.6 4.8 0.00 0.69 0.69 48 1049.2
20260905183311 33 152 6.4 9.7 0.00 0.69 0.69 48 1049.4
20260905182806 33 140 1.6 4.8 0.00 0.69 0.69 51 1049.4
20260905182306 33 140 3.2 4.8 0.00 0.69 0.69 48 1049.3
20260905181800 33 132 1.6 3.2 0.00 0.69 0.69 48 1049.4
20260905181255 33 71 3.2 6.4 0.00 0.69 0.69 50 1049.6
20260905180754 33 104 4.8 9.7 0.00 0.69 0.69 49 1049.6
20260905180249 32 117 0.0 4.8 0.00 0.69 0.69 48 1049.8
20260905175744 32 91 8.0 12.9 0.00 0.69 0.69 49 1049.7
20260905175239 32 111 4.8 6.4 0.00 0.69 0.69 48 1049.8
20260905174734 32 101 3.2 9.7 0.00 0.69 0.69 48 1049.9
20260905174229 32 94 1.6 4.8 0.00 0.69 0.69 48 1049.9
20260905173726 32 114 0.0 4.8 0.00 0.69 0.69 54 1050.0
20260905173222 32 89 9.7 12.9 0.00 0.69 0.69 50 1049.8
20260905172721 32 108 3.2 4.8 0.00 0.69 0.69 49 1050.0
20260905172221 32 84 8.0 9.7 0.00 0.69 0.69 47 1050.0
20260905171716 31 143 4.8 6.4 0.00 0.69 0.69 48 1050.2
20260905171212 31 81 4.8 9.7 0.00 0.69 0.69 49 1050.3
20260905170710 31 118 3.2 6.4 0.00 0.69 0.69 55 1050.3
20260905170209 31 84 6.4 9.7 0.00 0.69 0.69 51 1050.3
20260905165709 31 127 3.2 4.8 0.00 0.69 0.69 50 1050.3
20260905165204 31 95 4.8 6.4 0.00 0.69 0.69 55 1050.4
20260905164659 31 101 1.6 6.4 0.00 0.69 0.69 55 1050.2
20260905164159 30 83 6.4 11.3 0.00 0.69 0.69 52 1050.3
20260905163655 30 150 8.0 11.3 0.00 0.69 0.69 54 1050.4
20260905163151 31 63 4.8 6.4 0.00 0.69 0.69 51 1050.3
20260905162647 31 130 1.6 4.8 0.00 0.69 0.69 58 1050.0
20260905162146 30 87 3.2 4.8 0.00 0.69 0.69 58 1050.3
20260905161641 30 127 4.8 9.7 0.00 0.69 0.69 57 1050.5
20260905161139 30 82 6.4 6.4 0.00 0.69 0.69 60 1050.2
20260905160639 30 105 6.4 9.7 0.00 0.69 0.69 58 1050.4
20260905160138 30 125 4.8 4.8 0.00 0.69 0.69 59 1050.7
20260905155632 29 87 3.2 9.7 0.00 0.69 0.69 62 1050.4
20260905155131 28 63 6.4 9.7 0.00 0.69 0.69 62 1050.4
20260905154631 28 70 12.9 14.5 0.00 0.69 0.69 60 1050.6
20260905154127 28 70 6.4 12.9 0.00 0.69 0.69 63 1050.5
20260905153623 28 127 6.4 12.9 0.00 0.69 0.69 65 1050.8
20260905153118 28 96 6.4 9.7 0.00 0.69 0.69 64 1050.6
20260905152613 28 93 4.8 6.4 0.00 0.69 0.69 63 1050.5
20260905152108 27 126 3.2 6.4 0.00 0.69 0.69 66 1050.8
20260905151603 27 81 3.2 6.4 0.00 0.69 0.69 67 1050.9
20260905151058 27 95 4.8 9.7 0.00 0.69 0.69 66 1050.9
20260905150553 27 65 9.7 12.9 0.00 0.69 0.69 64 1051.0
20260905150052 28 92 6.4 6.4 0.00 0.69 0.69 68 1051.1
20260905145550 27 126 3.2 4.8 0.00 0.69 0.69 66 1051.1
20260905145049 27 90 3.2 3.2 0.00 0.69 0.69 67 1051.1
20260905144545 27 93 3.2 6.4 0.00 0.69 0.69 68 1051.0
20260905144044 27 96 4.8 4.8 0.00 0.69 0.69 69 1050.9
20260905143543 27 108 3.2 9.7 0.00 0.69 0.69 69 1050.9
20260905143039 27 71 4.8 4.8 0.00 0.69 0.69 69 1051.4
20260905142537 27 59 4.8 4.8 0.00 0.69 0.69 67 1051.0
20260905142033 26 108 0.0 3.2 0.00 0.69 0.69 70 1051.2
20260905141533 26 113 1.6 3.2 0.00 0.69 0.69 69 1051.1
20260905141030 26 112 1.6 3.2 0.00 0.69 0.69 71 1051.3
20260905140530 26 103 0.0 1.6 0.00 0.69 0.69 74 1051.1
20260905140028 25 115 0.0 0.0 0.00 0.69 0.69 75 1051.0
20260905135524 25 119 0.0 3.2 0.00 0.69 0.69 82 1051.4
20260905135020 24 114 0.0 3.2 0.00 0.69 0.69 79 1051.2
20260905134520 23 102 1.6 4.8 0.00 0.69 0.69 81 1051.3
20260905134018 23 92 1.6 3.2 0.00 0.69 0.69 83 1051.5
20260905133514 22 92 3.2 3.2 0.00 0.69 0.69 85 1051.7
20260905133014 22 86 1.6 3.2 0.00 0.69 0.69 87 1052.0
20260905132508 22 101 1.6 3.2 0.00 0.69 0.69 88 1051.8
20260905132008 22 116 1.6 6.4 0.00 0.69 0.69 88 1052.0
20260905131504 22 67 4.8 4.8 0.00 0.69 0.69 89 1051.8
20260905130959 22 81 1.6 1.6 0.00 0.69 0.69 90 1052.0
20260905130458 22 117 0.0 3.2 0.00 0.69 0.69 90 1052.0
20260905125958 21 97 3.2 4.8 0.00 0.69 0.69 90 1052.2
20260905125453 21 90 3.2 11.3 0.00 0.69 0.69 90 1052.2
20260905124948 21 94 0.0 3.2 0.00 0.69 0.69 90 1052.0
20260905124445 21 99 1.6 4.8 0.00 0.69 0.69 90 1052.2
20260905123940 21 313 3.2 9.7 0.00 0.69 0.69 89 1052.2
20260905123436 21 341 3.2 3.2 0.00 0.69 0.69 89 1052.0
20260905122936 21 303 4.8 14.5 0.00 0.69 0.69 89 1052.2
20260905122437 21 10 9.7 12.9 0.00 0.69 0.69 91 1052.0
20260905121932 21 110 0.0 0.0 0.00 0.69 0.69 93 1051.3
20260905121428 21 108 0.0 0.0 0.00 0.69 0.69 93 1051.0
20260905120926 21 121 0.0 0.0 0.00 0.69 0.69 92 1051.3
20260905120421 21 292 8.0 14.5 0.00 0.69 0.69 91 1051.5
20260905115916 21 113 0.0 0.0 0.00 0.69 0.69 92 1051.4
20260905115415 21 86 3.2 14.5 0.00 0.69 0.69 94 1051.5
20260905114911 21 108 0.0 0.0 0.18 0.69 0.69 95 1051.5
20260905114410 21 110 0.0 1.6 0.18 0.69 0.69 95 1051.5
20260905113909 21 115 0.0 0.0 0.00 0.66 0.66 95 1051.5